DW6451 Weather Reports


Display with metric or nautical units.
time (UTC)temp
F
wind
direction
speed
MPH
gust
MPH
rain 1hr
in
rain 24hr
in
rain mn
in
humidity
%
barometer
mb
20201204043023 35 215 0.0 3.0 0.00 0.00 0.00 71 1008.3
20201204041533 35 212 0.0 3.0 0.00 0.00 0.00 71 1008.6
20201204040113 35 244 1.0 4.0 0.00 0.00 0.00 71 1008.8
20201204034520 35 239 0.0 4.0 0.00 0.00 0.00 71 1008.9
20201204033008 35 228 1.0 4.0 0.00 0.00 0.00 71 1008.9
20201204031617 35 228 0.0 5.0 0.00 0.00 0.00 71 1009.0
20201204030253 35 216 0.0 3.0 0.00 0.00 0.00 70 1009.2
20201204024724 35 201 0.0 2.0 0.00 0.00 0.00 70 1009.4
20201204023350 36 201 0.0 4.0 0.00 0.00 0.00 70 1009.5
20201204021827 36 237 1.0 5.0 0.00 0.00 0.00 70 1009.6
20201204020220 35 219 1.0 7.0 0.00 0.00 0.00 70 1009.6
20201204014619 35 227 2.0 6.0 0.00 0.00 0.00 70 1009.7
20201204013252 35 229 1.0 6.0 0.00 0.00 0.00 70 1009.7
20201204011626 35 225 2.0 5.0 0.00 0.00 0.00 71 1009.9
20201204010124 35 219 0.0 6.0 0.00 0.00 0.00 71 1010.2
20201204004650 35 261 1.0 6.0 0.00 0.00 0.00 71 1009.8
20201204003109 35 254 0.0 4.0 0.00 0.00 0.00 71 1009.9
20201204001615 35 247 0.0 4.0 0.00 0.00 0.00 71 1010.0
20201204000130 35 240 0.0 2.0 0.00 0.00 0.00 70 1010.1
20201203234707 35 263 1.0 4.0 0.00 0.00 0.00 70 1009.9
20201203233120 35 262 0.0 5.0 0.00 0.00 0.00 70 1009.8
20201203231602 35 254 1.0 4.0 0.00 0.00 0.00 70 1010.1
20201203230216 35 247 1.0 8.0 0.00 0.00 0.00 69 1010.0
20201203224637 35 240 1.0 5.0 0.00 0.00 0.00 69 1009.8
20201203223109 35 252 1.0 5.0 0.00 0.00 0.00 69 1010.2
20201203221557 35 300 2.0 7.0 0.00 0.00 0.00 68 1010.5
20201203220150 36 228 1.0 7.0 0.00 0.00 0.00 68 1010.6
20201203214638 36 238 2.0 6.0 0.00 0.00 0.00 68 1010.6
20201203213140 36 204 1.0 7.0 0.00 0.00 0.00 67 1010.7
20201203211613 36 279 1.0 6.0 0.00 0.00 0.00 66 1010.8
20201203210059 36 321 2.0 7.0 0.00 0.00 0.00 66 1010.9
20201203204555 36 232 2.0 7.0 0.00 0.00 0.00 65 1011.1
20201203203125 36 267 2.0 7.0 0.00 0.00 0.00 65 1011.2
20201203201548 36 180 1.0 7.0 0.00 0.00 0.00 64 1011.3
20201203200054 36 259 1.0 8.0 0.00 0.00 0.00 64 1011.2
20201203194610 37 300 3.0 7.0 0.00 0.00 0.00 64 1011.3
20201203193054 37 284 2.0 5.0 0.00 0.00 0.00 64 1011.4
20201203191616 37 275 1.0 7.0 0.00 0.00 0.00 65 1011.6
20201203190141 37 259 2.0 5.0 0.00 0.00 0.00 65 1011.8
20201203184620 36 311 0.0 6.0 0.00 0.00 0.00 67 1012.0
20201203183049 36 133 2.0 13.0 0.00 0.00 0.00 67 1012.1
20201203181610 36 315 2.0 6.0 0.00 0.00 0.00 68 1012.1
20201203180054 35 236 2.0 10.0 0.00 0.00 0.00 69 1012.4
20201203174547 35 191 4.0 8.0 0.00 0.00 0.00 69 1012.7
20201203173047 36 234 2.0 10.0 0.00 0.00 0.00 69 1012.8
20201203171527 36 228 2.0 11.0 0.00 0.00 0.00 71 1013.1
20201203170107 35 245 3.0 10.0 0.00 0.00 0.00 74 1013.6
20201203164519 34 236 3.0 9.0 0.00 0.00 0.00 75 1014.0
20201203163029 33 247 3.0 8.0 0.00 0.00 0.00 77 1014.2
20201203161722 33 314 2.0 9.0 0.00 0.00 0.00 80 1014.4
20201203160158 32 178 3.0 11.0 0.00 0.00 0.00 82 1014.9
20201203154655 31 322 2.0 9.0 0.00 0.00 0.00 83 1015.2
20201203153212 30 232 2.0 8.0 0.00 0.00 0.00 85 1015.2
20201203151722 30 248 2.0 9.0 0.00 0.00 0.00 87 1015.3
20201203150058 29 302 3.0 9.0 0.00 0.00 0.00 88 1015.3
20201203144638 29 313 1.0 6.0 0.00 0.00 0.00 89 1015.5
20201203143141 29 238 2.0 7.0 0.00 0.00 0.00 89 1015.4
20201203141629 29 217 1.0 8.0 0.00 0.00 0.00 89 1015.3
20201203140156 29 236 1.0 5.0 0.00 0.00 0.00 90 1015.6
20201203134631 28 171 1.0 7.0 0.00 0.00 0.00 90 1015.5
20201203133157 28 236 3.0 8.0 0.00 0.00 0.00 90 1015.6
20201203131603 28 206 2.0 5.0 0.00 0.00 0.00 90 1015.9
20201203130059 28 229 1.0 4.0 0.00 0.00 0.00 90 1016.3
20201203124529 28 214 1.0 4.0 0.00 0.00 0.00 90 1016.3
20201203123023 29 236 2.0 5.0 0.00 0.00 0.00 89 1016.6
20201203121605 29 227 0.0 4.0 0.00 0.00 0.00 89 1016.5
20201203120030 29 231 1.0 7.0 0.00 0.00 0.00 89 1016.7
20201203114518 29 244 1.0 7.0 0.00 0.00 0.00 88 1016.7
20201203113247 29 244 1.0 7.0 0.00 0.00 0.00 88 1016.6
20201203111659 29 288 2.0 6.0 0.00 0.00 0.00 88 1016.7
20201203110226 30 291 2.0 7.0 0.00 0.00 0.00 87 1016.7
20201203104649 30 269 1.0 9.0 0.00 0.00 0.00 87 1016.9
20201203103213 30 245 1.0 7.0 0.00 0.00 0.00 87 1016.9
20201203101658 30 246 1.0 7.0 0.00 0.00 0.00 87 1017.0
20201203100058 30 249 2.0 5.0 0.00 0.00 0.00 86 1017.1
20201203094612 30 257 2.0 8.0 0.00 0.00 0.00 86 1017.3
20201203093139 31 305 2.0 8.0 0.00 0.00 0.00 86 1017.3
20201203091719 31 234 1.0 7.0 0.00 0.00 0.00 86 1017.4
20201203090105 31 318 2.0 8.0 0.00 0.00 0.00 85 1017.5
20201203084629 31 243 2.0 5.0 0.00 0.00 0.00 85 1017.9
20201203083113 31 236 1.0 4.0 0.00 0.00 0.00 84 1018.4
20201203081547 32 222 1.0 7.0 0.00 0.00 0.00 83 1018.5
20201203080118 32 217 2.0 6.0 0.00 0.00 0.00 83 1018.7
20201203074624 33 284 1.0 5.0 0.00 0.00 0.00 82 1019.2
20201203073048 33 261 0.0 5.0 0.00 0.00 0.00 82 1019.4
20201203071600 33 238 2.0 7.0 0.00 0.00 0.00 82 1019.8
20201203070029 33 266 2.0 10.0 0.00 0.00 0.00 82 1019.9
20201203064548 33 223 1.0 9.0 0.00 0.00 0.00 82 1019.8
20201203063023 33 257 2.0 7.0 0.00 0.00 0.00 82 1019.9
20201203061518 33 227 1.0 8.0 0.00 0.00 0.00 82 1019.9
20201203060039 33 226 2.0 8.0 0.00 0.00 0.00 82 1020.0
20201203054554 33 214 2.0 7.0 0.00 0.00 0.00 82 1020.0
20201203053026 33 248 1.0 7.0 0.00 0.00 0.00 82 1020.5
20201203051526 33 236 2.0 7.0 0.00 0.00 0.00 81 1020.7
20201203050025 33 325 3.0 9.0 0.00 0.00 0.00 82 1020.6
20201203044520 33 257 3.0 8.0 0.00 0.00 0.00 83 1020.7